Location: Parc des �les de St-Timoth�e
(45.2924°N, 74.0481°W)
Time: 17:22:17
(UTC-04:00)

ISS - All Passes

Search period start: 27 May 2018 00:00
Search period end: 06 June 2018 00:00
Orbit: 402 x 407 km, 51.6° (Epoch: 27 May)

Date Brightness Start Highest point End Pass type
(mag) Time Alt. Az. Time Alt. Az. Time Alt. Az.
27 May - 00:34:20 10° NW 00:37:31 47° NNE 00:40:41 10° E visible
27 May - 02:10:58 10° WNW 02:13:55 31° SW 02:16:50 10° SSE visible
27 May - 18:52:12 10° SSW 18:54:55 24° SE 18:57:38 10° E daylight
27 May - 20:27:59 10° WSW 20:31:12 57° NNW 20:34:26 10° NE daylight
27 May - 22:05:18 10° WNW 22:08:08 26° N 22:10:58 10° NE visible
27 May - 23:42:09 10° NW 23:45:12 35° NNE 23:48:15 10° E visible
28 May - 01:18:36 10° WNW 01:21:48 55° SW 01:25:00 10° SE visible
28 May - 18:01:07 10° SSE 18:02:55 14° SE 18:04:42 10° E daylight
28 May - 19:35:41 10° WSW 19:38:58 90° WNW 19:42:15 10° ENE daylight
28 May - 21:12:49 10° WNW 21:15:45 29° N 21:18:40 10° NE visible
28 May - 22:49:55 10° NW 22:52:50 29° N 22:55:45 10° ENE visible
29 May - 00:26:21 10° WNW 00:29:38 86° NNE 00:32:54 10° ESE visible
29 May - 02:03:48 10° W 02:05:42 15° SW 02:07:36 10° S night (unlit)
29 May - 18:43:35 10° SW 18:46:46 52° SE 18:49:59 10° ENE daylight
29 May - 20:20:18 10° W 20:23:22 36° NNW 20:26:26 10° NE daylight
29 May - 21:57:36 10° NW 22:00:26 26° N 22:03:15 10° ENE visible
29 May - 23:34:09 10° NW 23:37:22 54° NNE 23:40:35 10° ESE visible
30 May - 01:10:56 10° W 01:13:41 25° SW 01:16:26 10° SSE visible
30 May - 17:51:46 10° SSW 17:54:39 29° SE 17:57:34 10° ENE daylight
30 May - 19:27:50 10° W 19:31:02 49° NNW 19:34:14 10° NE daylight
30 May - 21:05:11 10° WNW 21:08:00 26° N 21:10:49 10° ENE visible
30 May - 22:41:57 10° NW 22:45:03 38° NNE 22:48:08 10° E visible
31 May - 00:18:26 10° WNW 00:21:34 45° SW 00:24:43 10° SE visible
31 May - 17:00:22 10° S 17:02:35 17° SE 17:04:49 10° E daylight
31 May - 18:35:27 10° WSW 18:38:44 76° NNW 18:42:01 10° ENE daylight
31 May - 20:12:40 10° WNW 20:15:34 28° N 20:18:27 10° NE daylight
31 May - 21:49:41 10° NW 21:52:39 30° NNE 21:55:37 10° ENE visible
31 May - 23:26:06 10° WNW 23:29:23 79° SSW 23:32:39 10° SE visible
01 Jun - 01:04:04 10° WSW 01:05:22 12° SW 01:06:40 10° SSW visible
01 Jun - 17:43:14 10° SW 17:46:29 64° SSE 17:49:45 10° ENE daylight
01 Jun - 19:20:08 10° W 19:23:08 33° NNW 19:26:10 10° NE daylight
01 Jun - 20:57:22 10° NW 21:00:13 27° N 21:03:04 10° ENE daylight
01 Jun - 22:33:51 10° WNW 22:37:07 63° NNE 22:40:21 10° ESE visible
02 Jun - 00:10:48 10° W 00:13:20 21° SW 00:15:52 10° S visible
02 Jun - 16:51:15 10° SSW 16:54:17 36° SE 16:57:21 10° ENE daylight
02 Jun - 18:27:36 10° W 18:30:45 43° NNW 18:33:54 10° NE daylight
02 Jun - 20:04:56 10° WNW 20:07:46 25° N 20:10:34 10° ENE daylight
02 Jun - 21:41:36 10° NW 21:44:45 43° NNE 21:47:54 10° E visible
02 Jun - 23:18:10 10° WNW 23:21:13 36° SW 23:24:15 10° SSE visible
03 Jun - 15:59:38 10° S 16:02:10 21° SE 16:04:43 10° E daylight
03 Jun - 17:35:08 10° WSW 17:38:23 64° NNW 17:41:39 10° ENE daylight
03 Jun - 19:12:25 10° WNW 19:15:17 27° N 19:18:08 10° NE daylight
03 Jun - 20:49:20 10° NW 20:52:21 33° NNE 20:55:21 10° E daylight
03 Jun - 22:25:46 10° WNW 22:29:01 65° SSW 22:32:14 10° SE visible
04 Jun - 15:08:49 10° SSE 15:10:06 12° SE 15:11:22 10° ESE daylight
04 Jun - 16:42:48 10° SW 16:46:05 78° SSE 16:49:22 10° ENE daylight
04 Jun - 18:19:50 10° WNW 18:22:48 31° NNW 18:25:47 10° NE daylight
04 Jun - 19:57:00 10° NW 19:59:53 28° N 20:02:46 10° ENE daylight
04 Jun - 21:33:27 10° WNW 21:36:44 75° NNE 21:39:59 10° ESE visible
04 Jun - 23:10:37 10° W 23:12:52 17° SW 23:15:06 10° S visible
05 Jun - 15:50:41 10° SW 15:53:49 44° SE 15:56:59 10° ENE daylight
05 Jun - 17:27:15 10° W 17:30:21 39° NNW 17:33:28 10° NE daylight
05 Jun - 19:04:34 10° WNW 19:07:24 26° N 19:10:12 10° ENE daylight
05 Jun - 20:41:09 10° NW 20:44:22 48° NNE 20:47:33 10° E daylight
05 Jun - 22:17:49 10° WNW 22:20:44 30° SW 22:23:38 10° SSE visible
